Flag for Germany Weather past 2 weeks in Güstrow, Mecklenburg-Western Pomerania, Germany

Now
32 °F

Snow. Partly sunny.


Feels Like: 24 °F
Forecast: 36 / 43 °F
Wind: 9 mph from Southeast

Location: Laage

Current Time: Mar 31, 2015 at 10:50:49 AM

Latest Report: Mar 31, 2015 at 9:20 AM


Visibility: 1 mi

Pressure: 28.97 "Hg

Humidity: 100%

Dew point: 32 °F

Location of GüstrowLocation

Historic Weather in Güstrow — Graph

°F

Güstrow temperature yesterday

Maximum temperature yesterday: 48 °F (at 12:20 AM)
Minimum temperature yesterday: 39 °F (at 2:20 AM)
Average temperature yesterday: 42 °F

Past Weeks' High & Low Weather Summary

 TemperatureHumidityPressure
High59 °F (Mar 17, 3:20 PM)100% (Mar 21, 6:20 AM)30.51 "Hg (Mar 21, 6:20 AM)
Low27 °F (Mar 20, 5:20 AM)23% (Mar 18, 3:20 PM)28.85 "Hg (Mar 30, 1:20 AM)
Average42 °F76%29.95 "Hg
* Reported Mar 16 8:20 AM — Mar 31 9:20 AM, Güstrow, Weather by CustomWeather, © 2015

Note: Actual official high and low records may vary slightly from our data, if they occured in-between our weather recording intervals... More about our weather records

Advertising

Güstrow weather history for previous 24 hours

 ConditionsComfort  
Time TempWeatherWind HumidityBarometerVisibility
9:20 AM
Tue, Mar 31
32 °FSnow. Partly sunny.9 mph100%28.97 "Hg1 mi
8:55 AM32 °FSnow. More clouds than sun.12 mph100%29.00 "Hg1 mi
8:20 AM32 °FRain. More clouds than sun.14 mph100%29.03 "Hg1 mi
7:20 AM34 °FRain. Low clouds.13 mph93%29.12 "Hg1 mi
6:20 AM36 °FLight rain. Partly cloudy.10 mph93%29.21 "Hg4 mi
5:20 AM39 °FPartly cloudy.10 mph70%29.30 "HgN/A
4:20 AM39 °FPassing clouds.9 mph75%29.36 "HgN/A
3:20 AM37 °FOvercast.10 mph81%29.42 "HgN/A
2:20 AM37 °FOvercast.13 mph87%29.47 "HgN/A
1:20 AM37 °FPassing clouds.9 mph81%29.50 "HgN/A
12:20 AM37 °FPassing clouds.12 mph81%29.53 "HgN/A
11:20 PM
Mon, Mar 30
39 °FPassing clouds.16 mph75%29.53 "HgN/A
10:20 PM39 °FPassing clouds.20 mph81%29.53 "HgN/A
9:20 PM41 °FPassing clouds.24 mph76%29.50 "HgN/A
8:20 PM41 °FPartly sunny.28 mph76%29.47 "HgN/A
7:20 PM43 °FScattered showers. Partly sunny.25 mph76%29.45 "HgN/A
6:20 PM43 °FScattered showers. Partly sunny.23 mph87%29.42 "HgN/A
5:20 PM43 °FSprinkles. Partly sunny.29 mph81%29.36 "HgN/A
4:20 PM43 °FSprinkles. Partly sunny.28 mph87%29.33 "HgN/A
3:20 PM45 °FScattered showers. Partly sunny.26 mph76%29.30 "HgN/A
2:20 PM46 °FScattered showers. Broken clouds.23 mph71%29.24 "HgN/A
1:20 PM45 °FBroken clouds.21 mph81%29.21 "HgN/A
1:00 PM43 °FSprinkles. Partly sunny.25 mph81%29.21 "HgN/A
12:20 PM41 °FPartly sunny.20 mph93%29.18 "HgN/A
12:01 PM41 °FSprinkles. Partly sunny.21 mph93%29.18 "Hg4 mi
11:20 AM43 °FPartly sunny.20 mph81%29.15 "HgN/A
10:20 AM41 °FBroken clouds.18 mph93%29.12 "HgN/A
Weather by CustomWeather, © 2015

See weather overviewHow to use our weather pages